Location: Horowhenua
(40.7500°S, 175.3333°E)
Time: 05:53:43
(UTC+00:00)

IDEFIX/ARIANE 42P - Pass Details

Date: 28 January 2023
Orbit: 783 x 802 km, 98.5° (Epoch: 01 April)

Event Time Altitude Azimuth Distance (km) Brightness Sun altitude
Exits shadow 12:41:15 32° 110° (ESE) 1,348 3.9 -31.0°
Maximum altitude 12:41:21 32° 112° (ESE) 1,348 3.9 -31.0°
Drops below altitude 10° 12:45:58 10° 174° (S) 2,383 5.9 -31.0°
Sets 12:48:30 0° 183° (S) 3,317 6.9 -30.9°
